Wilmington, OH NWS (KILN) Doppler Radar Loop using GRLevel3 Software
Last 10 volume scans
Wilmington, OH Radar using GRLevel3

                    
                     

Wilmington, OH NWS Radar Loop
Wilmington OH Radar Loop

Regional Radar Loop
Regional Radar Loop

GOES 16 GeoColor (True Color daytime, multispectral IR at night) - Great Lakes Region Loop
Regional GOES 16 IR Band 15 - Great Lakes Region Loop


National Weather Service Regional Observations

Station State Time Temperature Dew Point RH Wind Heat Index Wind Chill Pressure Visibility Weather
Charleston West Virginia 9/23/2018 7:54 AM 61.0 61.0 100 Calm N/A N/A 30.11 2.0 Light Rain, Mist
Chicago O'hare Illinois 9/23/2018 7:51 AM 51.1 46.0 83 Calm N/A N/A 30.18 8.0 --
Cleveland Ohio 9/23/2018 7:51 AM 52.0 48.0 86 SE (130) at 5 N/A N/A 30.22 10.0 --
Columbus Ohio 9/23/2018 7:51 AM 54.0 50.0 86 NE (40) at 5 N/A N/A 30.16 10.0 --
Covington Kentucky 9/23/2018 7:52 AM 59.0 55.0 87 NE (50) at 8 N/A N/A 30.11 10.0 --
Dayton Ohio 9/23/2018 7:56 AM 52.0 50.0 93 NNE (20) at 5 N/A N/A 30.17 10.0 --
Dothan Alabama 9/23/2018 7:53 AM 70.0 66.9 90 E (90) at 5 N/A N/A 30.05 8.0 --
Evansville Indiana 9/23/2018 8:28 AM 61.0 61.0 100 NNE (20) at 6 N/A N/A 30.09 7.0 --
Fort Wayne Indiana 9/23/2018 7:54 AM 48.0 46.9 96 NE (40) at 3 N/A 46.9 30.19 6.0 Mist
Frankfort Kentucky 9/23/2018 8:34 AM 60.1 59.0 96 ENE (70) at 9 N/A N/A 30.07 2.5 Heavy Rain, Mist
Huntsville Alabama 9/23/2018 7:53 AM 73.9 73.0 97 E (100) at 5 70.5 N/A 30.01 9.0 --
Indianapolis Indiana 9/23/2018 7:54 AM 53.1 51.1 93 NNE (30) at 10 N/A N/A 30.13 10.0 --
Knoxville Tennessee 9/23/2018 7:53 AM 66.9 66.9 100 E (90) at 5 N/A N/A 30.06 0.1 Fog
Lexington Kentucky 9/23/2018 8:32 AM 61.0 59.0 93 E (80) at 9 N/A N/A 30.07 2.0 Heavy Rain, Mist
Louisville Kentucky 9/23/2018 8:29 AM 61.0 60.1 97 NNE (30) at 5 N/A N/A 30.07 2.5 Light Rain, Mist
Nashville Tennessee 9/23/2018 8:30 AM 70.0 68.0 93 Calm N/A N/A 30.03 1.0 --
Noctor/Jackson Kentucky 9/23/2018 8:28 AM 62.1 60.1 93 E (90) at 3 N/A N/A 30.10 3.0 Light Rain, Mist
Paducah Kentucky 9/23/2018 7:53 AM 63.0 61.0 93 NE (40) at 7 N/A N/A 30.05 8.0 --
Pittsburgh Pennsylvania 9/23/2018 7:51 AM 52.0 51.1 97 NNE (30) at 5 N/A N/A 30.16 10.0 --
St. Louis Missouri 9/23/2018 7:51 AM 57.0 54.0 89 NE (40) at 6 N/A N/A 30.12 10.0 --
West Palm Beach Florida 9/23/2018 7:53 AM 78.1 77.0 97 Calm 80.8 N/A 29.96 10.0 --
Wilmington Ohio 9/23/2018 7:54 AM 54.0 54.0 100 ENE (60) at 6 N/A N/A 30.13 9.0 --

These are regional hourly observations made by the National Weather Service. The observations are usually made between 50 and 59 minutes past the hour and are usually available by 15 minutes past the next hour.


This page will reload automatically every 10 minutes.

38,285 Page Views